"startDT [UTC]","vpos","CH4 [ppm]","stdev(CH4) [ppm]","CO2 [ppm]","stdev(CO2) [ppm]","H2O_reported [%]","stdev(H2O_reported)","CavityPressure [torr]","CavityTemp [C]","OutletValve","CH4_dry [ppm]","CO2_dry [ppm]","DasTemp [C]","EtalonTemp [C]","WarmBoxTemp [C]","MPVPosition","T_ECpre [C]","T_EC1 [C]","T_EC2 [C]","p_inlet [hPa]","p_in [hPa]","p_out [hPa]","T_inlet [C]","RH_inlet [%]","dwpt_inlet [C]","T_vent [C]","RH_vent [%]","dwpt_vent [C]","flow_vent [l min-1]","flow_inlet [l min-1]","dwpt_sample [C]","T_room [C]"
2016-01-29 00:00:00,0.0,1.96617,0.00038,408.113,0.038,0.0795,0.0017,139.998,45.002,31243.69985,1.96772,408.502,30.432,45.071,45.000,0.00,0.08,-272.75,-272.80,-2,511,-931,16.7,3.3,-27.8,17.0,3.3,-27.4,5.73,1.71,-21.2,23.4
2016-01-29 00:01:00,0.0,1.96554,0.00052,408.068,0.041,0.0793,0.0022,139.998,45.001,31245.13214,1.96713,408.460,30.420,45.071,45.000,0.00,0.08,-272.76,-272.81,-3,511,-931,16.7,3.3,-27.8,17.0,3.3,-27.5,5.73,1.83,-21.2,23.4
2016-01-29 00:02:00,0.0,1.96493,0.00088,408.034,0.045,0.0802,0.0019,139.998,45.002,31247.44063,1.96650,408.427,30.409,45.071,45.000,0.00,0.08,-272.76,-272.81,-3,511,-931,16.7,3.3,-27.8,17.0,3.3,-27.5,5.73,1.90,-21.2,23.4
2016-01-29 00:03:00,0.0,1.96558,0.00053,408.073,0.030,0.0795,0.0018,139.998,45.003,31250.88759,1.96709,408.464,30.398,45.071,45.000,0.00,0.08,-272.75,-272.80,-2,511,-931,16.7,3.3,-27.8,17.0,3.3,-27.5,5.73,1.80,-21.2,23.4
2016-01-29 00:04:00,0.0,1.96599,0.00039,408.102,0.027,0.0807,0.0020,139.999,45.002,31250.94078,1.96753,408.497,30.382,45.071,45.000,0.00,0.08,-272.75,-272.81,-2,511,-931,16.7,3.3,-27.8,17.0,3.3,-27.4,5.73,1.70,-21.2,23.4
2016-01-29 00:05:00,0.0,1.96575,0.00032,408.085,0.029,0.0809,0.0013,139.998,45.000,31253.32920,1.96732,408.482,30.380,45.072,45.000,0.00,0.08,-272.76,-272.81,-3,511,-931,16.7,3.3,-27.7,16.9,3.3,-27.4,5.73,1.79,-21.2,23.4
2016-01-29 00:06:00,0.0,1.96555,0.00048,408.069,0.027,0.0804,0.0018,139.997,45.002,31253.27141,1.96713,408.466,30.381,45.072,45.000,0.00,0.08,-272.75,-272.80,-3,511,-931,16.7,3.3,-27.8,16.9,3.3,-27.4,5.73,1.91,-21.2,23.4
2016-01-29 00:07:00,0.0,1.96423,0.00128,408.002,0.062,0.0805,0.0013,139.999,45.003,31258.90512,1.96592,408.400,30.376,45.071,45.000,0.00,0.08,-272.75,-272.80,-2,511,-931,16.7,3.3,-27.7,16.9,3.3,-27.4,5.73,1.86,-21.2,23.4
2016-01-29 00:08:00,0.0,1.96179,0.00038,407.863,0.026,0.0791,0.0023,140.000,45.002,31262.82949,1.96329,408.252,30.376,45.071,45.000,0.00,0.08,-272.75,-272.81,-2,511,-931,16.7,3.3,-27.9,16.9,3.3,-27.5,5.73,1.72,-21.2,23.3
2016-01-29 00:09:00,0.0,1.96267,0.00079,407.922,0.063,0.0778,0.0014,140.001,45.000,31260.42849,1.96412,408.302,30.379,45.071,45.000,0.00,0.08,-272.75,-272.81,-3,511,-931,16.7,3.2,-28.0,16.9,3.3,-27.6,5.73,1.73,-21.2,23.4
2016-01-29 00:10:00,0.0,1.96320,0.00074,407.947,0.043,0.0791,0.0016,139.998,45.000,31259.84639,1.96473,408.335,30.375,45.071,45.000,0.00,0.08,-272.75,-272.80,-3,511,-931,16.7,3.2,-27.9,16.9,3.3,-27.5,5.73,1.87,-21.2,23.4
2016-01-29 00:11:00,0.0,1.96274,0.00068,407.942,0.052,0.0786,0.0014,139.999,45.001,31261.13549,1.96429,408.329,30.375,45.071,45.000,0.00,0.08,-272.76,-272.80,-2,511,-931,16.7,3.2,-27.9,16.9,3.3,-27.5,5.73,1.90,-21.2,23.4
2016-01-29 00:12:00,0.0,1.96275,0.00033,407.944,0.033,0.0785,0.0016,140.000,45.001,31261.82609,1.96427,408.330,30.368,45.071,45.000,0.00,0.08,-272.76,-272.80,-3,511,-931,16.7,3.2,-27.9,17.0,3.3,-27.5,5.73,1.75,-21.2,23.4
2016-01-29 00:13:00,0.0,1.96210,0.00047,407.898,0.035,0.0788,0.0016,140.000,45.000,31259.70445,1.96367,408.284,30.374,45.071,45.000,0.00,0.08,-272.76,-272.80,-3,511,-931,16.7,3.2,-27.9,16.9,3.3,-27.5,5.73,1.67,-21.2,23.4
2016-01-29 00:14:00,0.0,1.96140,0.00056,407.860,0.040,0.0785,0.0015,140.000,45.000,31260.35158,1.96293,408.248,30.374,45.071,45.000,0.00,0.08,-272.76,-272.81,-2,511,-931,16.7,3.2,-28.0,16.9,3.3,-27.6,5.73,1.77,-21.2,23.4
2016-01-29 00:15:00,0.0,1.96111,0.00043,407.855,0.038,0.0780,0.0020,139.999,45.000,31261.13011,1.96260,408.236,30.375,45.071,45.000,0.00,0.08,-272.76,-272.81,-2,511,-931,16.7,3.2,-28.1,16.9,3.3,-27.7,5.73,1.88,-21.2,23.4
2016-01-29 00:16:00,0.0,1.96059,0.00051,407.807,0.039,0.0773,0.0018,139.998,45.000,31260.06669,1.96210,408.187,30.375,45.071,45.000,0.00,0.08,-272.75,-272.80,-3,511,-931,16.7,3.2,-28.1,16.9,3.3,-27.7,5.73,1.81,-21.2,23.4
2016-01-29 00:17:00,0.0,1.96025,0.00039,407.806,0.031,0.0776,0.0015,139.997,45.000,31264.69398,1.96174,408.188,30.373,45.071,45.000,0.00,0.08,-272.75,-272.80,-2,511,-931,16.7,3.2,-28.1,16.9,3.2,-27.7,5.73,1.69,-21.2,23.3
2016-01-29 00:18:00,0.0,1.95942,0.00045,407.767,0.039,0.0769,0.0020,139.998,44.999,31263.88964,1.96096,408.144,30.360,45.071,45.000,0.00,0.08,-272.75,-272.81,-2,511,-931,16.7,3.2,-28.1,16.9,3.2,-27.8,5.73,1.75,-21.2,23.4
2016-01-29 00:19:00,0.0,1.95922,0.00034,407.738,0.033,0.0766,0.0016,139.999,45.001,31266.80076,1.96068,408.114,30.375,45.071,45.000,0.00,0.08,-272.76,-272.81,-3,511,-931,16.7,3.1,-28.3,16.9,3.2,-27.8,5.73,1.87,-21.3,23.3
2016-01-29 00:20:00,0.0,1.95927,0.00027,407.763,0.039,0.0754,0.0011,139.999,45.001,31266.48686,1.96073,408.133,30.374,45.071,45.000,0.00,0.08,-272.76,-272.80,-3,511,-931,16.7,3.1,-28.3,16.9,3.2,-27.8,5.73,1.86,-21.2,23.4
2016-01-29 00:21:00,0.0,1.95961,0.00036,407.758,0.031,0.0756,0.0012,140.000,45.000,31264.22302,1.96106,408.129,30.353,45.071,45.000,0.00,0.08,-272.76,-272.81,-2,511,-931,16.7,3.1,-28.3,16.9,3.2,-27.9,5.73,1.74,-21.2,23.3
2016-01-29 00:22:00,0.0,1.95959,0.00051,407.747,0.041,0.0758,0.0014,139.998,45.001,31263.88114,1.96102,408.117,30.351,45.071,45.000,0.00,0.08,-272.76,-272.81,-2,511,-931,16.7,3.1,-28.3,16.9,3.2,-27.9,5.73,1.70,-21.3,23.3
2016-01-29 00:23:00,0.0,1.96035,0.00042,407.808,0.033,0.0752,0.0010,140.000,45.002,31265.51800,1.96179,408.177,30.320,45.071,45.000,0.00,0.08,-272.75,-272.81,-3,511,-931,16.7,3.1,-28.4,16.9,3.2,-27.9,5.73,1.81,-21.3,23.4
2016-01-29 00:24:00,0.0,1.96092,0.00040,407.858,0.031,0.0756,0.0019,139.999,45.003,31270.14061,1.96238,408.228,30.313,45.071,45.000,0.00,0.08,-272.76,-272.80,-3,511,-931,16.7,3.1,-28.3,16.9,3.2,-27.9,5.73,1.88,-21.3,23.4
2016-01-29 00:25:00,0.0,1.96088,0.00033,407.848,0.043,0.0754,0.0018,139.999,45.004,31274.79901,1.96230,408.216,30.302,45.071,45.000,0.00,0.08,-272.76,-272.81,-2,511,-931,16.7,3.1,-28.3,16.9,3.2,-28.0,5.73,1.79,-21.2,23.3
2016-01-29 00:26:00,0.0,1.96096,0.00029,407.845,0.037,0.0758,0.0012,139.998,45.002,31276.77006,1.96244,408.219,30.305,45.071,45.000,0.00,0.08,-272.76,-272.80,-3,511,-931,16.6,3.1,-28.3,16.9,3.2,-27.9,5.73,1.68,-21.2,23.4
2016-01-29 00:27:00,0.0,1.96060,0.00035,407.829,0.025,0.0758,0.0016,140.001,45.003,31281.88805,1.96208,408.202,30.313,45.071,45.000,0.00,0.08,-272.75,-272.80,-3,511,-931,16.7,3.1,-28.3,16.9,3.2,-27.9,5.73,1.75,-21.3,23.3
2016-01-29 00:28:00,0.0,1.96032,0.00051,407.806,0.027,0.0757,0.0021,139.998,45.003,31283.53249,1.96180,408.178,30.310,45.071,45.000,0.00,0.08,-272.76,-272.81,-2,511,-931,16.6,3.1,-28.4,16.9,3.2,-28.0,5.73,1.89,-21.3,23.3
2016-01-29 00:29:00,0.0,1.95969,0.00071,407.745,0.042,0.0750,0.0022,140.001,45.003,31283.60053,1.96116,408.114,30.312,45.071,45.000,0.00,0.08,-272.76,-272.80,-2,511,-931,16.6,3.1,-28.4,16.9,3.2,-28.0,5.73,1.87,-21.3,23.4
2016-01-29 00:30:00,0.0,1.95902,0.00038,407.706,0.026,0.0740,0.0015,139.997,45.001,31280.40789,1.96047,408.069,30.312,45.071,45.000,0.00,0.08,-272.75,-272.80,-3,511,-930,16.6,3.1,-28.6,16.9,3.1,-28.1,5.73,1.74,-21.2,23.3
2016-01-29 00:31:00,0.0,1.95847,0.00049,407.708,0.029,0.0736,0.0017,139.998,45.001,31278.17767,1.95987,408.069,30.311,45.071,45.000,0.00,0.08,-272.75,-272.81,-3,511,-930,16.6,3.0,-28.6,16.9,3.1,-28.2,5.73,1.72,-21.3,23.4
2016-01-29 00:32:00,0.0,1.95863,0.00060,407.691,0.040,0.0736,0.0022,139.999,45.002,31279.49805,1.96005,408.052,30.312,45.071,45.000,0.00,0.08,-272.75,-272.81,-2,511,-930,16.6,3.0,-28.7,16.9,3.1,-28.3,5.73,1.83,-21.3,23.3
2016-01-29 00:33:00,0.0,1.95966,0.00043,407.770,0.031,0.0731,0.0015,139.999,45.001,31277.74831,1.96102,408.127,30.311,45.071,45.000,0.00,0.08,-272.75,-272.80,-3,511,-930,16.6,3.0,-28.7,16.9,3.1,-28.3,5.73,1.90,-21.3,23.3
2016-01-29 00:34:00,0.0,1.95849,0.00054,407.694,0.041,0.0744,0.0018,139.999,45.001,31273.93889,1.95999,408.061,30.312,45.071,45.000,0.00,0.08,-272.75,-272.80,-3,511,-930,16.6,3.0,-28.7,16.9,3.1,-28.3,5.73,1.81,-21.3,23.3
2016-01-29 00:35:00,0.0,1.95823,0.00049,407.688,0.031,0.0726,0.0014,140.000,45.001,31274.10682,1.95966,408.046,30.309,45.071,45.000,0.00,0.08,-272.75,-272.81,-3,511,-930,16.6,3.0,-28.8,16.9,3.1,-28.3,5.73,1.71,-21.3,23.3
2016-01-29 00:36:00,0.0,1.95806,0.00052,407.660,0.042,0.0730,0.0022,140.001,45.001,31274.62627,1.95949,408.019,30.282,45.071,45.000,0.00,0.08,-272.75,-272.81,-2,511,-930,16.6,3.0,-28.9,16.8,3.1,-28.4,5.73,1.73,-21.3,23.3
2016-01-29 00:37:00,0.0,1.95811,0.00064,407.669,0.043,0.0722,0.0017,140.000,45.000,31272.08488,1.95948,408.022,30.256,45.071,45.000,0.00,0.08,-272.76,-272.80,-3,511,-929,16.5,3.0,-28.9,16.9,3.0,-28.5,5.73,1.86,-21.3,23.3
2016-01-29 00:38:00,0.0,1.95790,0.00063,407.631,0.031,0.0720,0.0016,140.002,45.001,31273.82278,1.95930,407.984,30.249,45.071,45.000,0.00,0.08,-272.76,-272.80,-4,511,-929,16.5,3.0,-29.0,16.9,3.0,-28.5,5.73,1.89,-21.3,23.3
2016-01-29 00:39:00,0.0,1.95737,0.00032,407.626,0.041,0.0720,0.0014,139.997,44.999,31272.59834,1.95874,407.980,30.244,45.071,45.000,0.00,0.08,-272.76,-272.81,-2,511,-929,16.5,3.0,-29.0,16.8,3.0,-28.5,5.73,1.79,-21.3,23.3
2016-01-29 00:40:00,0.0,1.95721,0.00030,407.624,0.038,0.0710,0.0017,140.000,45.000,31273.26767,1.95860,407.970,30.204,45.071,45.000,0.00,0.08,-272.75,-272.80,-2,511,-929,16.5,3.0,-29.0,16.8,3.0,-28.6,5.73,1.70,-21.3,23.3
2016-01-29 00:41:00,0.0,1.95696,0.00032,407.626,0.032,0.0708,0.0015,139.998,45.001,31271.71362,1.95831,407.975,30.164,45.071,45.000,0.00,0.08,-272.75,-272.81,-3,511,-929,16.5,2.9,-29.1,16.8,3.0,-28.6,5.73,1.77,-21.3,23.3
2016-01-29 00:42:00,0.0,1.95730,0.00035,407.648,0.031,0.0704,0.0013,139.999,45.000,31269.17594,1.95865,407.992,30.126,45.072,45.000,0.00,0.08,-272.76,-272.80,-3,510,-929,16.5,2.9,-29.1,16.8,3.0,-28.6,5.73,1.89,-21.3,23.3
2016-01-29 00:43:00,0.0,1.95758,0.00058,407.656,0.037,0.0703,0.0021,139.996,44.999,31265.49046,1.95893,408.002,30.125,45.072,45.001,0.00,0.08,-272.75,-272.80,-2,511,-929,16.4,2.9,-29.1,16.8,3.0,-28.6,5.73,1.89,-21.4,23.3
2016-01-29 00:44:00,0.0,1.95717,0.00047,407.615,0.033,0.0709,0.0019,140.001,44.998,31265.24924,1.95856,407.964,30.125,45.072,45.000,0.00,0.08,-272.75,-272.80,-3,511,-929,16.4,2.9,-29.1,16.7,3.0,-28.6,5.73,1.75,-21.3,23.2
2016-01-29 00:45:00,0.0,1.95691,0.00043,407.601,0.030,0.0703,0.0014,139.997,44.998,31262.10585,1.95825,407.946,30.111,45.072,45.000,0.00,0.08,-272.76,-272.82,-4,510,-929,16.4,2.9,-29.2,16.7,3.0,-28.7,5.73,1.65,-21.4,23.2
2016-01-29 00:46:00,0.0,1.95775,0.00073,407.644,0.045,0.0701,0.0019,140.000,45.000,31264.53950,1.95909,407.986,30.070,45.071,45.000,0.00,0.08,-272.75,-272.81,-3,510,-929,16.4,2.9,-29.2,16.7,3.0,-28.8,5.73,1.74,-21.4,23.2
2016-01-29 00:47:00,0.0,1.95752,0.00039,407.624,0.032,0.0698,0.0014,140.001,45.003,31265.32095,1.95886,407.967,30.090,45.071,45.000,0.00,0.08,-272.75,-272.81,-2,510,-929,16.4,2.9,-29.2,16.7,3.0,-28.7,5.73,1.83,-21.4,23.2
2016-01-29 00:48:00,0.0,1.95829,0.00130,407.685,0.063,0.0705,0.0017,139.997,45.003,31264.74319,1.95964,408.030,30.092,45.071,45.000,0.00,0.08,-272.76,-272.81,-3,510,-929,16.3,2.9,-29.2,16.7,3.0,-28.7,5.73,1.82,-21.4,23.2
2016-01-29 00:49:00,0.0,1.95784,0.00070,407.650,0.038,0.0706,0.0016,140.000,44.999,31259.95997,1.95920,407.997,30.067,45.071,45.000,0.00,0.08,-272.76,-272.81,-4,510,-929,16.3,3.0,-29.2,16.7,3.0,-28.7,5.73,1.71,-21.4,23.2
2016-01-29 00:50:00,0.0,1.95785,0.00060,407.651,0.036,0.0708,0.0016,139.999,44.996,31253.51686,1.95918,407.998,30.063,45.071,45.000,0.00,0.08,-272.75,-272.80,-3,510,-929,16.3,2.9,-29.2,16.7,3.0,-28.7,5.73,1.71,-21.4,23.2
2016-01-29 00:51:00,0.0,1.95870,0.00095,407.688,0.050,0.0707,0.0019,140.000,44.993,31246.73114,1.96004,408.034,30.044,45.071,45.000,0.00,0.08,-272.76,-272.81,-3,510,-929,16.3,3.0,-29.1,16.6,3.0,-28.7,5.73,1.83,-21.4,23.2
2016-01-29 00:52:00,0.0,1.95878,0.00178,407.708,0.093,0.0705,0.0016,139.997,44.993,31238.87057,1.96012,408.053,29.997,45.071,45.000,0.00,0.08,-272.77,-272.81,-3,510,-929,16.3,3.0,-29.2,16.6,3.0,-28.7,5.73,1.87,-21.4,23.1
2016-01-29 00:53:00,0.0,1.95945,0.00073,407.778,0.039,0.0706,0.0016,139.997,44.994,31232.00973,1.96085,408.125,29.950,45.071,45.000,0.00,0.08,-272.75,-272.80,-3,510,-929,16.3,3.0,-29.1,16.6,3.0,-28.6,5.73,1.70,-21.4,23.1
2016-01-29 00:54:00,0.0,1.95937,0.00109,407.754,0.056,0.0717,0.0014,140.002,44.995,31230.11246,1.96076,408.108,29.934,45.071,45.000,0.00,0.08,-272.75,-272.80,-2,510,-929,16.3,3.0,-29.1,16.6,3.1,-28.6,5.73,1.65,-21.4,23.1
2016-01-29 00:55:00,0.0,1.96013,0.00079,407.770,0.045,0.0707,0.0018,140.002,44.996,31227.03946,1.96145,408.115,29.917,45.071,45.000,0.00,0.08,-272.76,-272.81,-3,510,-929,16.2,3.0,-29.1,16.6,3.1,-28.6,5.73,1.73,-21.4,23.1
2016-01-29 00:56:00,0.0,1.95909,0.00091,407.736,0.050,0.0714,0.0018,139.998,44.997,31223.91394,1.96053,408.087,29.884,45.071,45.000,0.00,0.08,-272.75,-272.81,-3,510,-928,16.3,3.0,-29.1,16.6,3.1,-28.6,5.73,1.87,-21.5,23.1
2016-01-29 00:57:00,0.0,1.95885,0.00103,407.724,0.067,0.0708,0.0016,140.000,44.997,31221.07312,1.96019,408.071,29.875,45.072,45.000,0.00,0.08,-272.76,-272.80,-3,510,-928,16.2,3.0,-29.1,16.6,3.1,-28.5,5.73,1.77,-21.5,23.1
2016-01-29 00:58:00,0.0,1.95941,0.00110,407.755,0.058,0.0711,0.0018,140.003,44.998,31219.22702,1.96078,408.104,29.875,45.072,45.000,0.00,0.08,-272.76,-272.81,-2,510,-928,16.2,3.0,-29.1,16.5,3.0,-28.7,5.73,1.68,-21.5,23.1
2016-01-29 00:59:00,0.0,1.95974,0.00092,407.739,0.046,0.0709,0.0014,140.001,44.998,31217.52616,1.96111,408.088,29.875,45.072,45.000,0.00,0.08,-272.75,-272.81,-3,510,-928,16.2,3.0,-29.1,16.5,3.1,-28.6,5.73,1.65,-21.5,23.1
2016-01-29 01:00:00,0.0,1.95987,0.00135,407.755,0.076,0.0711,0.0011,140.001,44.998,31215.43174,1.96125,408.103,29.858,45.071,45.000,0.00,0.08,-272.75,-272.81,-3,510,-928,16.2,3.0,-29.0,16.5,3.1,-28.6,5.73,1.80,-21.5,23.0
2016-01-29 01:01:00,0.0,1.96051,0.00056,407.817,0.049,0.0719,0.0022,140.001,44.998,31212.12322,1.96183,408.170,29.816,45.071,45.000,0.00,0.08,-272.75,-272.81,-2,510,-928,16.2,3.0,-29.0,16.5,3.1,-28.6,5.73,1.91,-21.5,23.0
2016-01-29 01:02:00,0.0,1.96312,0.00055,407.915,0.037,0.0731,0.0015,140.001,44.998,31209.13273,1.96445,408.271,29.788,45.071,45.000,0.00,0.08,-272.76,-272.80,-3,510,-928,16.1,3.1,-28.9,16.5,3.1,-28.5,5.73,1.79,-21.5,23.0
2016-01-29 01:03:00,0.0,1.96158,0.00099,407.854,0.058,0.0729,0.0020,140.000,44.999,31208.17530,1.96299,408.212,29.755,45.071,45.000,0.00,0.08,-272.75,-272.80,-3,510,-928,16.1,3.1,-28.8,16.5,3.2,-28.4,5.73,1.70,-21.5,23.0
2016-01-29 01:04:00,0.0,1.96222,0.00087,407.886,0.053,0.0731,0.0015,140.000,44.999,31205.00241,1.96373,408.247,29.743,45.072,45.000,0.00,0.08,-272.75,-272.81,-2,510,-928,16.1,3.1,-28.7,16.5,3.2,-28.3,5.73,1.76,-21.6,23.0
2016-01-29 01:05:00,0.0,1.96360,0.00125,407.935,0.068,0.0733,0.0016,139.999,44.999,31203.00197,1.96493,408.292,29.706,45.072,45.000,0.00,0.08,-272.76,-272.81,-2,510,-928,16.1,3.1,-28.8,16.5,3.2,-28.4,5.73,1.90,-21.5,23.0
2016-01-29 01:06:00,0.0,1.96279,0.00091,407.905,0.067,0.0739,0.0022,139.998,44.999,31200.43900,1.96415,408.266,29.689,45.072,45.000,0.00,0.08,-272.75,-272.80,-3,510,-928,16.1,3.1,-28.7,16.4,3.2,-28.3,5.73,1.83,-21.6,23.0
2016-01-29 01:07:00,0.0,1.96312,0.00138,407.918,0.087,0.0736,0.0016,139.998,44.999,31199.57727,1.96460,408.281,29.680,45.072,45.000,0.00,0.08,-272.75,-272.80,-3,510,-928,16.1,3.1,-28.7,16.4,3.2,-28.3,5.73,1.70,-21.5,23.0
2016-01-29 01:08:00,0.0,1.96325,0.00250,407.922,0.123,0.0745,0.0013,140.000,44.999,31194.96321,1.96465,408.287,29.677,45.072,45.000,0.00,0.08,-272.75,-272.80,-2,510,-928,16.0,3.1,-28.7,16.4,3.2,-28.3,5.73,1.75,-21.6,22.9
2016-01-29 01:09:00,0.0,1.96445,0.00091,407.996,0.055,0.0743,0.0014,139.999,44.999,31193.81578,1.96591,408.361,29.675,45.072,45.000,0.00,0.08,-272.76,-272.81,-3,510,-928,16.0,3.1,-28.7,16.4,3.2,-28.3,5.73,1.90,-21.6,22.9
2016-01-29 01:10:00,0.0,1.96593,0.00137,408.080,0.071,0.0747,0.0022,139.998,45.000,31193.50361,1.96732,408.445,29.658,45.072,45.000,0.00,0.08,-272.75,-272.80,-3,510,-928,16.0,3.2,-28.5,16.4,3.2,-28.2,5.73,1.90,-21.6,22.9
2016-01-29 01:11:00,0.0,1.96708,0.00074,408.133,0.053,0.0764,0.0021,139.998,45.000,31194.15604,1.96847,408.506,29.629,45.072,45.000,0.00,0.08,-272.75,-272.81,-2,509,-928,16.0,3.2,-28.5,16.3,3.3,-28.1,5.73,1.76,-21.6,22.9
2016-01-29 01:12:00,0.0,1.96819,0.00178,408.216,0.083,0.0773,0.0017,139.996,45.000,31191.55237,1.96973,408.596,29.625,45.072,45.000,0.00,0.08,-272.75,-272.81,-2,510,-928,16.0,3.3,-28.3,16.3,3.3,-28.0,5.73,1.73,-21.6,22.9
2016-01-29 01:13:00,0.0,1.96852,0.00095,408.195,0.043,0.0764,0.0020,139.997,44.999,31188.34863,1.96996,408.570,29.611,45.072,45.000,0.00,0.08,-272.75,-272.80,-3,510,-928,16.0,3.3,-28.3,16.3,3.3,-27.9,5.73,1.87,-21.6,22.9
2016-01-29 01:14:00,0.0,1.96848,0.00079,408.212,0.050,0.0779,0.0018,140.000,44.999,31192.17083,1.97001,408.595,29.573,45.072,45.000,0.00,0.08,-272.75,-272.80,-2,509,-928,16.0,3.3,-28.2,16.3,3.3,-27.9,5.73,1.87,-21.6,22.9
2016-01-29 01:15:00,0.0,1.97035,0.00077,408.308,0.049,0.0782,0.0014,139.997,45.000,31189.29386,1.97180,408.689,29.558,45.071,45.000,0.00,0.08,-272.76,-272.81,-2,510,-928,16.0,3.3,-28.2,16.3,3.3,-27.9,5.73,1.65,-21.6,22.9
2016-01-29 01:16:00,0.0,1.97107,0.00109,408.318,0.052,0.0783,0.0018,139.998,44.999,31188.04407,1.97257,408.702,29.529,45.072,45.000,0.00,0.08,-272.76,-272.81,-2,510,-928,16.0,3.3,-28.1,16.3,3.4,-27.8,5.73,1.59,-21.7,22.8
2016-01-29 01:17:00,0.0,1.96988,0.00079,408.269,0.041,0.0783,0.0022,140.001,45.000,31185.96337,1.97146,408.655,29.503,45.072,45.000,0.00,0.08,-272.75,-272.81,-3,509,-927,15.9,3.3,-28.1,16.3,3.4,-27.7,5.73,1.71,-21.7,22.8
2016-01-29 01:18:00,0.0,1.97099,0.00075,408.315,0.056,0.0785,0.0018,139.999,44.999,31180.69638,1.97241,408.698,29.500,45.072,45.000,0.00,0.08,-272.76,-272.81,-2,509,-927,15.9,3.4,-28.1,16.3,3.4,-27.7,5.73,1.79,-21.7,22.8
2016-01-29 01:19:00,0.0,1.97239,0.00059,408.386,0.039,0.0795,0.0020,139.999,44.999,31181.43928,1.97391,408.777,29.499,45.072,45.000,0.00,0.08,-272.76,-272.81,-2,509,-927,15.9,3.4,-28.0,16.2,3.4,-27.6,5.73,1.74,-21.7,22.8
2016-01-29 01:20:00,0.0,1.97446,0.00117,408.476,0.079,0.0806,0.0026,140.000,44.999,31180.96891,1.97597,408.869,29.486,45.072,45.000,0.00,0.08,-272.75,-272.80,-3,509,-927,15.9,3.4,-27.9,16.2,3.5,-27.5,5.73,1.73,-21.7,22.8
2016-01-29 01:21:00,0.0,1.97314,0.00134,408.424,0.097,0.0821,0.0015,140.000,44.999,31179.40038,1.97480,408.829,29.445,45.072,45.000,0.00,0.08,-272.75,-272.80,-2,509,-927,15.9,3.5,-27.8,16.2,3.5,-27.4,5.73,1.82,-21.7,22.7
2016-01-29 01:22:00,0.0,1.97528,0.00119,408.508,0.077,0.0817,0.0013,139.998,45.000,31176.20288,1.97676,408.907,29.439,45.072,45.000,0.00,0.08,-272.76,-272.80,-2,509,-927,15.8,3.5,-27.8,16.2,3.5,-27.4,5.73,1.97,-21.7,22.7
2016-01-29 01:23:00,0.0,1.97414,0.00158,408.493,0.075,0.0818,0.0013,139.998,45.000,31174.95632,1.97589,408.899,29.437,45.072,45.000,0.00,0.08,-272.75,-272.80,-3,509,-927,15.9,3.5,-27.6,16.2,3.5,-27.3,5.73,1.98,-21.7,22.7
2016-01-29 01:24:00,0.0,1.96822,0.00091,408.159,0.051,0.0806,0.0022,139.998,45.000,31175.34918,1.96987,408.558,29.424,45.072,45.000,0.00,0.08,-272.74,-272.80,-3,509,-927,15.8,3.5,-27.8,16.1,3.5,-27.4,5.73,1.85,-21.7,22.7
2016-01-29 01:25:00,0.0,1.96882,0.00104,408.203,0.060,0.0799,0.0014,139.997,45.000,31172.56638,1.97040,408.596,29.387,45.072,45.000,0.00,0.08,-272.74,-272.80,-2,509,-927,15.8,3.4,-27.9,16.1,3.5,-27.5,5.73,1.80,-21.7,22.7
2016-01-29 01:26:00,0.0,1.96548,0.00078,408.011,0.035,0.0808,0.0016,140.001,45.000,31171.90029,1.96707,408.409,29.374,45.072,45.000,0.00,0.08,-272.75,-272.80,-2,509,-927,15.8,3.4,-27.9,16.1,3.5,-27.5,5.73,1.93,-21.8,22.7
2016-01-29 01:27:00,0.0,1.96830,0.00094,408.155,0.069,0.0803,0.0014,139.999,45.001,31169.12880,1.96977,408.546,29.375,45.072,45.000,0.00,0.08,-272.74,-272.80,-3,509,-927,15.8,3.4,-28.0,16.1,3.5,-27.5,5.73,1.99,-21.8,22.7
2016-01-29 01:28:00,0.0,1.96689,0.00139,408.092,0.057,0.0807,0.0014,139.999,45.001,31168.40497,1.96860,408.492,29.375,45.072,45.000,0.00,0.08,-272.75,-272.80,-3,509,-927,15.8,3.4,-27.9,16.1,3.5,-27.5,5.73,1.88,-21.8,22.6
2016-01-29 01:29:00,0.0,1.96489,0.00078,407.966,0.043,0.0803,0.0015,139.999,45.001,31166.80901,1.96644,408.361,29.344,45.072,45.000,0.00,0.08,-272.75,-272.81,-2,509,-927,15.7,3.4,-28.0,16.1,3.5,-27.5,5.73,1.78,-21.8,22.6
2016-01-29 01:30:00,0.0,1.96464,0.00094,407.967,0.049,0.0781,0.0017,140.001,45.000,31164.83662,1.96617,408.351,29.315,45.072,45.000,0.00,0.08,-272.74,-272.80,-3,509,-927,15.7,3.4,-28.1,16.1,3.5,-27.6,5.73,1.87,-21.8,22.6
2016-01-29 01:31:00,0.0,1.96509,0.00058,407.991,0.042,0.0787,0.0013,139.999,45.000,31163.84445,1.96656,408.377,29.307,45.072,45.000,0.00,0.08,-272.75,-272.80,-3,508,-927,15.7,3.4,-28.2,16.1,3.4,-27.7,5.73,1.99,-21.8,22.6
2016-01-29 01:32:00,0.0,1.96540,0.00064,408.004,0.036,0.0789,0.0015,139.999,45.000,31160.00301,1.96693,408.391,29.273,45.072,45.000,0.00,0.08,-272.76,-272.80,-2,508,-927,15.7,3.3,-28.2,16.0,3.4,-27.7,5.73,1.93,-21.8,22.6
2016-01-29 01:33:00,0.0,1.96649,0.00065,408.063,0.053,0.0783,0.0016,140.001,45.000,31158.91953,1.96795,408.445,29.249,45.072,45.000,0.00,0.08,-272.75,-272.80,-2,509,-927,15.7,3.4,-28.1,16.0,3.4,-27.7,5.73,1.79,-21.8,22.6
2016-01-29 01:34:00,0.0,1.96696,0.00063,408.102,0.042,0.0790,0.0017,140.001,45.000,31159.50362,1.96850,408.491,29.231,45.072,45.000,0.00,0.08,-272.74,-272.80,-3,508,-927,15.7,3.4,-28.1,16.0,3.4,-27.7,5.73,1.86,-21.8,22.6
2016-01-29 01:35:00,0.0,1.96690,0.00083,408.090,0.047,0.0789,0.0016,139.997,45.000,31157.04000,1.96850,408.478,29.193,45.072,45.000,0.00,0.08,-272.75,-272.80,-2,508,-927,15.7,3.4,-28.1,16.0,3.5,-27.7,5.73,2.00,-21.8,22.6
2016-01-29 01:36:00,0.0,1.96585,0.00130,408.031,0.069,0.0782,0.0022,139.998,45.000,31156.10240,1.96739,408.416,29.185,45.072,45.000,0.00,0.08,-272.75,-272.80,-2,508,-927,15.7,3.4,-28.2,16.0,3.4,-27.7,5.73,1.95,-21.9,22.6
2016-01-29 01:37:00,0.0,1.96281,0.00075,407.895,0.047,0.0769,0.0020,139.998,44.999,31153.21232,1.96434,408.274,29.168,45.072,45.000,0.00,0.08,-272.74,-272.79,-3,508,-927,15.7,3.3,-28.3,16.0,3.4,-27.8,5.73,1.81,-21.8,22.5
2016-01-29 01:38:00,0.0,1.96287,0.00066,407.876,0.045,0.0764,0.0013,140.000,44.999,31154.09199,1.96434,408.250,29.150,45.072,45.000,0.00,0.08,-272.74,-272.80,-3,508,-927,15.6,3.3,-28.5,15.9,3.4,-28.0,5.73,1.85,-21.9,22.5
2016-01-29 01:39:00,0.0,1.96258,0.00080,407.863,0.047,0.0755,0.0018,140.001,44.999,31155.06508,1.96405,408.235,29.125,45.072,45.000,0.00,0.08,-272.75,-272.80,-2,508,-927,15.6,3.3,-28.6,15.9,3.3,-28.2,5.73,2.03,-21.9,22.5
2016-01-29 01:40:00,0.0,1.96274,0.00103,407.874,0.045,0.0759,0.0020,140.000,45.000,31152.88758,1.96407,408.241,29.125,45.072,45.000,0.00,0.08,-272.74,-272.80,-3,508,-926,15.6,3.3,-28.6,15.9,3.3,-28.2,5.73,1.98,-21.9,22.5
2016-01-29 01:41:00,0.0,1.96364,0.00114,407.945,0.068,0.0754,0.0015,140.000,45.000,31150.65020,1.96521,408.319,29.124,45.072,45.000,0.00,0.08,-272.75,-272.80,-3,508,-926,15.6,3.2,-28.6,15.9,3.3,-28.2,5.73,1.82,-21.9,22.5
2016-01-29 01:42:00,0.0,1.96353,0.00115,407.927,0.062,0.0746,0.0014,140.004,45.000,31151.13632,1.96491,408.291,29.096,45.072,45.000,0.00,0.08,-272.75,-272.81,-2,508,-926,15.5,3.3,-28.7,15.8,3.3,-28.2,5.73,1.88,-21.9,22.4
2016-01-29 01:43:00,0.0,1.96455,0.00084,407.963,0.050,0.0747,0.0015,139.997,44.999,31149.39759,1.96601,408.329,29.067,45.072,45.000,0.00,0.08,-272.75,-272.80,-3,508,-926,15.5,3.3,-28.7,15.8,3.3,-28.2,5.73,2.04,-21.9,22.4
2016-01-29 01:44:00,0.0,1.96272,0.00085,407.869,0.052,0.0754,0.0020,139.998,44.999,31151.88919,1.96420,408.242,29.064,45.072,45.000,0.00,0.08,-272.74,-272.79,-3,508,-927,15.5,3.3,-28.6,15.8,3.3,-28.2,5.73,1.95,-21.9,22.4
2016-01-29 01:45:00,0.0,1.96337,0.00058,407.930,0.036,0.0745,0.0017,139.999,44.999,31147.32357,1.96482,408.295,29.052,45.072,45.000,0.00,0.08,-272.75,-272.80,-1,508,-926,15.5,3.2,-28.7,15.8,3.3,-28.2,5.73,1.81,-21.9,22.4